Gulfport, MS

8:06 PM CDT on April 25, 2017 (GMT -0500)
Gulfport-Biloxi Regional

Weather History for KGPT - May, 2013

Change the Weather History Date:

Sunday, May 26, 2013

  Actual Average Record
Temperature  
Mean Temperature 73 °F -  
Max Temperature 84 °F 86 °F 95 °F (1953)
Min Temperature 64 °F 68 °F 49 °F (1979)
Cooling Degree Days 8    
Growing Degree Days 23 (Base 50)    
Moisture  
Dew Point 63 °F    
Average Humidity 65    
Maximum Humidity 87    
Minimum Humidity 41    
Precipitation  
Precipitation 0.00 in - - ()
Sea Level Pressure  
Sea Level Pressure 30.15 in    
Wind  
Wind Speed 3 mph (SE)    
Max Wind Speed 13 mph    
Max Gust Speed 23 mph    
Visibility 10 miles    
Events      
Averages and records for this station are not official NWS values.
T = Trace of Precipitation, MM = Missing Value Source: NWS Daily Summary

Daily Weather History Graph

Daily Weather History Graph

Search for Another Location

Airport or City:

Trip Planner

Search our weather history database for the weather conditions in past years. The results will help you decide how hot, cold, wet, or windy it might be!

Date:

Astronomy

May. 26, 2013 Rise Set
Actual Time 5:56 AM CDT 7:50 PM CDT
Civil Twilight 5:29 AM CDT 8:17 PM CDT
Nautical Twilight 4:57 AM CDT 8:50 PM CDT
Astronomical Twilight 4:22 AM CDT 9:24 PM CDT
Moon 9:39 PM CDT 7:24 AM CDT
Length of Visible Light 14h 47m
Length of Day
13h 54m
Waning Gibbous, 96% of the Moon is Illuminated
May 26
Waning Gibbous
May 31
Last Quarter
Jun 8
New
Jun 16
First Quarter
Jun 23
Full

Hourly Weather History & Observations

Time (CDT) Temp. Heat Index Dew Point Humidity Pressure Visibility Wind Dir Wind Speed Gust Speed Precip Events Conditions
12:53 AM 69.1 °F - 64.0 °F 84% 30.15 in 10.0 mi Calm Calm - N/A   Clear
1:53 AM 66.9 °F - 63.0 °F 87% 30.13 in 10.0 mi Calm Calm - N/A   Clear
2:53 AM 66.9 °F - 62.1 °F 84% 30.13 in 10.0 mi Calm Calm - N/A   Clear
3:53 AM 66.0 °F - 62.1 °F 87% 30.14 in 10.0 mi Calm Calm - N/A   Clear
4:53 AM 66.9 °F - 62.1 °F 84% 30.14 in 10.0 mi Calm Calm - N/A   Clear
5:53 AM 64.9 °F - 61.0 °F 87% 30.15 in 10.0 mi Calm Calm - N/A   Clear
6:53 AM 66.0 °F - 61.0 °F 84% 30.17 in 10.0 mi Calm Calm - N/A   Clear
7:53 AM 71.1 °F - 62.1 °F 73% 30.18 in 10.0 mi Calm Calm - N/A   Clear
8:53 AM 77.0 °F - 64.0 °F 64% 30.20 in 10.0 mi ENE 4.6 mph - N/A   Clear
9:53 AM 82.0 °F 82.7 °F 61.0 °F 49% 30.19 in 10.0 mi East 8.1 mph - N/A   Clear
10:53 AM 82.0 °F 81.7 °F 57.0 °F 42% 30.19 in 10.0 mi SE 8.1 mph - N/A   Clear
11:53 AM 82.9 °F 82.4 °F 57.0 °F 41% 30.19 in 10.0 mi ESE 8.1 mph - N/A   Clear
12:53 PM 82.9 °F 84.4 °F 64.0 °F 53% 30.19 in 10.0 mi Variable 6.9 mph 23.0 mph N/A   Scattered Clouds
1:53 PM 82.9 °F 83.2 °F 60.1 °F 46% 30.18 in 10.0 mi SSE 10.4 mph 17.3 mph N/A   Partly Cloudy
2:53 PM 82.9 °F 84.0 °F 63.0 °F 51% 30.17 in 10.0 mi SE 12.7 mph 19.6 mph N/A   Partly Cloudy
3:53 PM 82.0 °F 82.4 °F 60.1 °F 47% 30.16 in 10.0 mi South 6.9 mph - N/A   Partly Cloudy
4:53 PM 82.0 °F 83.4 °F 64.0 °F 54% 30.15 in 10.0 mi SE 9.2 mph - N/A   Scattered Clouds
5:53 PM 81.0 °F 82.2 °F 63.0 °F 54% 30.13 in 10.0 mi SSE 6.9 mph - N/A   Clear
6:53 PM 81.0 °F 81.9 °F 62.1 °F 52% 30.12 in 10.0 mi SE 8.1 mph - N/A   Clear
7:53 PM 80.1 °F 81.5 °F 63.0 °F 56% 30.13 in 10.0 mi SSE 4.6 mph - N/A   Clear
8:53 PM 79.0 °F - 66.0 °F 64% 30.13 in 10.0 mi SE 8.1 mph - N/A   Clear
9:53 PM 79.0 °F - 68.0 °F 69% 30.13 in 10.0 mi SE 8.1 mph - N/A   Partly Cloudy
10:53 PM 79.0 °F - 70.0 °F 74% 30.13 in 10.0 mi SSE 9.2 mph - N/A   Partly Cloudy
11:53 PM 79.0 °F - 71.1 °F 77% 30.13 in 10.0 mi SE 10.4 mph - N/A   Mostly Cloudy